| time (UTC) | temp C | wind direction | speed KPH | gust KPH | rain 1hr cm | rain 24hr cm | rain mn cm | humidity % | barometer mb |
| 20260505211022 | 25 | 240 | 4.8 | 32.2 | 0.00 | 0.03 | 0.03 | 46 | 1007.8 |
| 20260505210522 | 25 | 116 | 8.0 | 32.2 | 0.00 | 0.03 | 0.03 | 46 | 1007.7 |
| 20260505210022 | 25 | 244 | 9.7 | 25.7 | 0.00 | 0.03 | 0.03 | 45 | 1007.7 |
| 20260505205522 | 25 | 217 | 9.7 | 29.0 | 0.00 | 0.03 | 0.03 | 44 | 1007.6 |
| 20260505205022 | 26 | 238 | 11.3 | 29.0 | 0.00 | 0.03 | 0.03 | 44 | 1007.8 |
| 20260505204521 | 26 | 203 | 9.7 | 22.5 | 0.00 | 0.03 | 0.03 | 44 | 1007.7 |
| 20260505204024 | 26 | 225 | 1.6 | 19.3 | 0.00 | 0.03 | 0.03 | 45 | 1007.8 |
| 20260505203520 | 26 | 229 | 8.0 | 20.9 | 0.00 | 0.03 | 0.03 | 43 | 1007.9 |
| 20260505203025 | 26 | 153 | 8.0 | 29.0 | 0.00 | 0.03 | 0.03 | 42 | 1007.9 |
| 20260505202520 | 26 | 209 | 11.3 | 29.0 | 0.00 | 0.03 | 0.03 | 42 | 1007.9 |
| 20260505202020 | 26 | 233 | 6.4 | 22.5 | 0.00 | 0.03 | 0.03 | 43 | 1007.8 |
| 20260505201519 | 27 | 254 | 9.7 | 22.5 | 0.00 | 0.03 | 0.03 | 44 | 1007.9 |
| 20260505201019 | 26 | 242 | 8.0 | 24.1 | 0.00 | 0.03 | 0.03 | 45 | 1007.9 |
| 20260505200521 | 27 | 173 | 8.0 | 16.1 | 0.00 | 0.03 | 0.03 | 45 | 1007.9 |
| 20260505200030 | 27 | 259 | 6.4 | 16.1 | 0.00 | 0.03 | 0.03 | 44 | 1008.0 |
| 20260505195518 | 26 | 259 | 6.4 | 29.0 | 0.00 | 0.03 | 0.03 | 45 | 1008.0 |
| 20260505195018 | 26 | 223 | 9.7 | 29.0 | 0.00 | 0.03 | 0.03 | 45 | 1007.8 |
| 20260505194518 | 26 | 317 | 11.3 | 30.6 | 0.00 | 0.03 | 0.03 | 44 | 1007.9 |
| 20260505194017 | 27 | 212 | 9.7 | 30.6 | 0.00 | 0.03 | 0.03 | 45 | 1007.9 |
| 20260505193517 | 27 | 210 | 3.2 | 20.9 | 0.00 | 0.03 | 0.03 | 48 | 1008.1 |
| 20260505193016 | 26 | 222 | 8.0 | 17.7 | 0.00 | 0.03 | 0.03 | 47 | 1008.1 |
| 20260505192519 | 26 | 139 | 6.4 | 17.7 | 0.00 | 0.03 | 0.03 | 46 | 1008.0 |
| 20260505192016 | 26 | 175 | 4.8 | 17.7 | 0.00 | 0.03 | 0.03 | 47 | 1008.1 |
| 20260505191515 | 26 | 159 | 8.0 | 19.3 | 0.00 | 0.03 | 0.03 | 47 | 1008.2 |
| 20260505191014 | 26 | 248 | 8.0 | 29.0 | 0.00 | 0.03 | 0.03 | 47 | 1008.4 |
| 20260505190517 | 26 | 240 | 11.3 | 30.6 | 0.00 | 0.03 | 0.03 | 46 | 1008.4 |
| 20260505190014 | 26 | 69 | 12.9 | 32.2 | 0.00 | 0.03 | 0.03 | 43 | 1008.5 |
| 20260505185518 | 26 | 261 | 6.4 | 33.8 | 0.00 | 0.03 | 0.03 | 44 | 1008.5 |
| 20260505185013 | 26 | 200 | 11.3 | 29.0 | 0.00 | 0.03 | 0.03 | 45 | 1008.5 |
| 20260505184518 | 27 | 249 | 11.3 | 19.3 | 0.00 | 0.03 | 0.03 | 47 | 1008.5 |
| 20260505184012 | 27 | 229 | 9.7 | 19.3 | 0.00 | 0.03 | 0.03 | 47 | 1008.6 |
| 20260505183510 | 27 | 186 | 8.0 | 29.0 | 0.00 | 0.03 | 0.03 | 48 | 1008.6 |
| 20260505183010 | 26 | 236 | 6.4 | 24.1 | 0.00 | 0.03 | 0.03 | 52 | 1008.7 |
| 20260505182510 | 26 | 218 | 6.4 | 24.1 | 0.00 | 0.03 | 0.03 | 48 | 1008.8 |
| 20260505182009 | 26 | 212 | 9.7 | 27.4 | 0.00 | 0.03 | 0.03 | 47 | 1008.9 |
| 20260505181509 | 26 | 195 | 14.5 | 27.4 | 0.00 | 0.03 | 0.03 | 45 | 1009.0 |
| 20260505181009 | 26 | 296 | 8.0 | 25.7 | 0.00 | 0.03 | 0.03 | 47 | 1009.1 |
| 20260505180518 | 26 | 218 | 8.0 | 22.5 | 0.00 | 0.03 | 0.03 | 46 | 1009.1 |
| 20260505180008 | 26 | 271 | 9.7 | 24.1 | 0.00 | 0.03 | 0.03 | 46 | 1009.0 |
| 20260505175508 | 26 | 202 | 8.0 | 29.0 | 0.00 | 0.03 | 0.03 | 46 | 1009.1 |
| 20260505175109 | 26 | 279 | 12.9 | 29.0 | 0.00 | 0.03 | 0.03 | 46 | 1009.1 |
| 20260505174511 | 26 | 321 | 11.3 | 24.1 | 0.00 | 0.03 | 0.03 | 48 | 1009.1 |
| 20260505174005 | 26 | 157 | 4.8 | 24.1 | 0.00 | 0.03 | 0.03 | 51 | 1009.2 |
| 20260505173509 | 26 | 190 | 9.7 | 24.1 | 0.00 | 0.03 | 0.03 | 49 | 1009.3 |
| 20260505173012 | 26 | 203 | 8.0 | 25.7 | 0.00 | 0.03 | 0.03 | 50 | 1009.3 |
| 20260505172503 | 26 | 103 | 4.8 | 25.7 | 0.00 | 0.03 | 0.03 | 52 | 1009.4 |
| 20260505172002 | 26 | 323 | 3.2 | 17.7 | 0.00 | 0.03 | 0.03 | 54 | 1009.4 |
| 20260505171502 | 25 | 214 | 6.4 | 27.4 | 0.00 | 0.03 | 0.03 | 54 | 1009.5 |
| 20260505171002 | 25 | 163 | 9.7 | 27.4 | 0.00 | 0.03 | 0.03 | 53 | 1009.6 |
| 20260505170501 | 25 | 259 | 8.0 | 24.1 | 0.00 | 0.03 | 0.03 | 54 | 1009.6 |
| 20260505170000 | 26 | 203 | 8.0 | 20.9 | 0.00 | 0.03 | 0.03 | 54 | 1009.6 |
| 20260505165601 | 26 | 238 | 6.4 | 11.3 | 0.00 | 0.03 | 0.03 | 55 | 1009.8 |
| 20260505165058 | 25 | 123 | 4.8 | 17.7 | 0.00 | 0.03 | 0.03 | 56 | 1009.9 |
| 20260505164603 | 25 | 234 | 6.4 | 17.7 | 0.00 | 0.03 | 0.03 | 55 | 1009.9 |
| 20260505164057 | 25 | 269 | 8.0 | 17.7 | 0.00 | 0.03 | 0.03 | 56 | 1009.9 |
| 20260505163556 | 25 | 26 | 8.0 | 24.1 | 0.00 | 0.03 | 0.03 | 57 | 1010.0 |
| 20260505163101 | 25 | 64 | 8.0 | 24.1 | 0.00 | 0.03 | 0.03 | 55 | 1010.1 |
| 20260505162559 | 25 | 234 | 4.8 | 19.3 | 0.00 | 0.03 | 0.03 | 58 | 1010.0 |
| 20260505162054 | 25 | 146 | 3.2 | 12.9 | 0.00 | 0.03 | 0.03 | 58 | 1010.1 |
| 20260505161554 | 25 | 141 | 3.2 | 9.7 | 0.00 | 0.03 | 0.03 | 57 | 1010.2 |
| 20260505161053 | 25 | 67 | 3.2 | 11.3 | 0.00 | 0.03 | 0.03 | 58 | 1010.3 |
| 20260505160555 | 25 | 298 | 1.6 | 8.0 | 0.00 | 0.03 | 0.03 | 61 | 1010.3 |
| 20260505153055 | 23 | 276 | 3.2 | 16.1 | 0.00 | 0.03 | 0.03 | 64 | 1010.7 |
| 20260505152542 | 22 | 295 | 3.2 | 9.7 | 0.00 | 0.03 | 0.03 | 64 | 1010.7 |
| 20260505152042 | 22 | 153 | 1.6 | 11.3 | 0.00 | 0.03 | 0.03 | 65 | 1010.7 |
| 20260505151545 | 22 | 248 | 3.2 | 11.3 | 0.00 | 0.03 | 0.03 | 64 | 1010.9 |
| 20260505151037 | 22 | 224 | 1.6 | 12.9 | 0.00 | 0.03 | 0.03 | 67 | 1010.8 |
| 20260505150538 | 21 | 194 | 1.6 | 12.9 | 0.00 | 0.03 | 0.03 | 67 | 1010.9 |
| 20260505140524 | 18 | 248 | 3.2 | 11.3 | 0.00 | 0.03 | 0.03 | 74 | 1011.5 |
| 20260505125010 | 16 | 224 | 3.2 | 8.0 | 0.00 | 0.03 | 0.03 | 81 | 1011.4 |
| 20260505124507 | 16 | 182 | 3.2 | 9.7 | 0.00 | 0.03 | 0.03 | 83 | 1011.3 |
| 20260505124010 | 16 | 267 | 1.6 | 11.3 | 0.00 | 0.03 | 0.03 | 82 | 1011.4 |
| 20260505123505 | 15 | 135 | 1.6 | 8.0 | 0.00 | 0.03 | 0.03 | 82 | 1011.4 |
| 20260505123005 | 15 | 103 | 1.6 | 12.9 | 0.00 | 0.03 | 0.03 | 82 | 1011.4 |
| 20260505122504 | 15 | 266 | 3.2 | 12.9 | 0.00 | 0.03 | 0.03 | 82 | 1011.3 |
| 20260505122004 | 15 | 148 | 1.6 | 8.0 | 0.00 | 0.03 | 0.03 | 82 | 1011.3 |
| 20260505121501 | 15 | 250 | 3.2 | 8.0 | 0.00 | 0.03 | 0.03 | 81 | 1011.3 |
| 20260505121100 | 15 | 254 | 1.6 | 8.0 | 0.00 | 0.03 | 0.03 | 82 | 1011.0 |
| 20260505120559 | 15 | 242 | 3.2 | 6.4 | 0.00 | 0.03 | 0.03 | 81 | 1011.0 |
| 20260505120059 | 15 | 244 | 1.6 | 4.8 | 0.00 | 0.03 | 0.03 | 83 | 1011.1 |
| 20260505115600 | 15 | 243 | 1.6 | 8.0 | 0.00 | 0.03 | 0.03 | 84 | 1011.0 |
| 20260505115057 | 14 | 233 | 1.6 | 6.4 | 0.00 | 0.03 | 0.03 | 84 | 1011.1 |
| 20260505114559 | 14 | 233 | 0.0 | 6.4 | 0.00 | 0.03 | 0.03 | 85 | 1011.1 |
| 20260505114059 | 13 | 226 | 1.6 | 6.4 | 0.00 | 0.03 | 0.03 | 86 | 1011.2 |
| 20260505113558 | 13 | 221 | 1.6 | 6.4 | 0.00 | 0.03 | 0.03 | 87 | 1011.2 |
| 20260505113101 | 13 | 207 | 1.6 | 9.7 | 0.00 | 0.03 | 0.03 | 89 | 1011.2 |
| 20260505112555 | 12 | 219 | 1.6 | 9.7 | 0.00 | 0.03 | 0.03 | 89 | 1011.2 |
| 20260505112055 | 12 | 203 | 0.0 | 8.0 | 0.00 | 0.03 | 0.03 | 90 | 1011.3 |
| 20260505111558 | 12 | 179 | 1.6 | 8.0 | 0.00 | 0.03 | 0.03 | 91 | 1011.2 |
| 20260505111055 | 12 | 173 | 1.6 | 4.8 | 0.00 | 0.03 | 0.03 | 91 | 1011.3 |
| 20260505110554 | 12 | 130 | 1.6 | 3.2 | 0.00 | 0.03 | 0.03 | 92 | 1011.1 |
| 20260505102052 | 11 | 168 | 0.0 | 4.8 | 0.03 | 0.03 | 0.03 | 94 | 1010.9 |
| 20260505101554 | 11 | 136 | 0.0 | 6.4 | 0.03 | 0.03 | 0.03 | 94 | 1010.9 |
| 20260505101051 | 11 | 136 | 3.2 | 6.4 | 0.03 | 0.03 | 0.03 | 92 | 1010.6 |
| 20260505100550 | 12 | 136 | 1.6 | 4.8 | 0.03 | 0.03 | 0.03 | 91 | 1010.9 |
| 20260505100053 | 12 | 138 | 0.0 | 4.8 | 0.03 | 0.03 | 0.03 | 91 | 1011.1 |
| 20260505095550 | 12 | 138 | 0.0 | 3.2 | 0.03 | 0.03 | 0.03 | 90 | 1011.0 |
| 20260505095049 | 12 | 138 | 0.0 | 6.4 | 0.03 | 0.03 | 0.03 | 89 | 1010.8 |
| 20260505094546 | 12 | 138 | 1.6 | 8.0 | 0.03 | 0.03 | 0.03 | 87 | 1010.8 |
| 20260505094045 | 13 | 134 | 1.6 | 8.0 | 0.03 | 0.03 | 0.03 | 85 | 1010.8 |
| 20260505093543 | 13 | 243 | 0.0 | 4.8 | 0.00 | 0.00 | 0.00 | 82 | 1011.2 |
| 20260505093043 | 13 | 243 | 1.6 | 4.8 | 0.00 | 0.00 | 0.00 | 81 | 1011.0 |
| 20260505092542 | 13 | 243 | 0.0 | 6.4 | 0.00 | 0.00 | 0.00 | 81 | 1010.9 |
| 20260505092040 | 13 | 243 | 1.6 | 6.4 | 0.00 | 0.00 | 0.00 | 80 | 1010.9 |
| 20260505091552 | 13 | 243 | 1.6 | 6.4 | 0.00 | 0.00 | 0.00 | 80 | 1010.7 |
| 20260505091043 | 13 | 242 | 3.2 | 6.4 | 0.00 | 0.00 | 0.00 | 79 | 1010.6 |
| 20260505090542 | 13 | 242 | 0.0 | 4.8 | 0.00 | 0.00 | 0.00 | 79 | 1010.5 |
| 20260505090052 | 13 | 242 | 0.0 | 6.4 | 0.00 | 0.00 | 0.00 | 79 | 1010.6 |
| 20260505085539 | 13 | 241 | 3.2 | 6.4 | 0.00 | 0.00 | 0.00 | 78 | 1010.7 |
| 20260505085039 | 13 | 240 | 0.0 | 4.8 | 0.00 | 0.00 | 0.00 | 78 | 1010.4 |
| 20260505084539 | 13 | 240 | 1.6 | 6.4 | 0.00 | 0.00 | 0.00 | 78 | 1010.3 |
| 20260505084038 | 13 | 234 | 1.6 | 6.4 | 0.00 | 0.00 | 0.00 | 78 | 1010.3 |
| 20260505083538 | 13 | 234 | 0.0 | 8.0 | 0.00 | 0.00 | 0.00 | 78 | 1010.3 |
| 20260505083043 | 13 | 244 | 1.6 | 8.0 | 0.00 | 0.00 | 0.00 | 78 | 1010.3 |
| 20260505082539 | 13 | 240 | 1.6 | 8.0 | 0.00 | 0.00 | 0.00 | 78 | 1010.4 |
| 20260505082038 | 13 | 203 | 0.0 | 4.8 | 0.00 | 0.00 | 0.00 | 77 | 1010.4 |
| 20260505081552 | 13 | 209 | 0.0 | 4.8 | 0.00 | 0.00 | 0.00 | 77 | 1010.4 |
| 20260505081038 | 13 | 213 | 1.6 | 6.4 | 0.00 | 0.00 | 0.00 | 76 | 1010.4 |
| 20260505080541 | 13 | 218 | 1.6 | 6.4 | 0.00 | 0.00 | 0.00 | 76 | 1010.3 |
| 20260505080046 | 13 | 213 | 1.6 | 4.8 | 0.00 | 0.00 | 0.00 | 76 | 1010.3 |
| 20260505075537 | 13 | 218 | 1.6 | 9.7 | 0.00 | 0.00 | 0.00 | 75 | 1010.4 |
| 20260505075037 | 13 | 218 | 3.2 | 9.7 | 0.00 | 0.00 | 0.00 | 76 | 1010.4 |
| 20260505074550 | 13 | 196 | 3.2 | 6.4 | 0.00 | 0.00 | 0.00 | 75 | 1010.3 |
| 20260505074037 | 13 | 190 | 3.2 | 6.4 | 0.00 | 0.00 | 0.00 | 75 | 1010.3 |
| 20260505073536 | 13 | 190 | 3.2 | 6.4 | 0.00 | 0.00 | 0.00 | 76 | 1010.3 |
| 20260505073036 | 13 | 188 | 3.2 | 6.4 | 0.00 | 0.00 | 0.00 | 76 | 1010.3 |
| 20260505072535 | 13 | 188 | 1.6 | 4.8 | 0.00 | 0.00 | 0.00 | 76 | 1010.2 |
| 20260505072035 | 13 | 188 | 0.0 | 6.4 | 0.00 | 0.00 | 0.00 | 76 | 1010.3 |
| 20260505071535 | 13 | 188 | 3.2 | 6.4 | 0.00 | 0.00 | 0.00 | 75 | 1010.3 |
| 20260505071035 | 13 | 188 | 0.0 | 4.8 | 0.00 | 0.00 | 0.00 | 75 | 1010.3 |
| 20260505070535 | 13 | 188 | 0.0 | 4.8 | 0.00 | 0.00 | 0.00 | 75 | 1010.3 |
| 20260505070035 | 13 | 188 | 1.6 | 6.4 | 0.00 | 0.00 | 0.00 | 75 | 1010.4 |
| 20260505065535 | 13 | 188 | 1.6 | 6.4 | 0.00 | 0.00 | 0.00 | 75 | 1010.3 |
| 20260505065034 | 13 | 188 | 1.6 | 8.0 | 0.00 | 0.00 | 0.00 | 75 | 1010.4 |
| 20260505064536 | 13 | 188 | 1.6 | 8.0 | 0.00 | 0.00 | 0.00 | 75 | 1010.3 |
| 20260505064034 | 13 | 271 | 1.6 | 6.4 | 0.00 | 0.00 | 0.00 | 74 | 1010.4 |
| 20260505063533 | 13 | 257 | 1.6 | 14.5 | 0.00 | 0.00 | 0.00 | 74 | 1010.4 |
| 20260505063039 | 13 | 234 | 3.2 | 14.5 | 0.00 | 0.00 | 0.00 | 75 | 1010.4 |
| 20260505062534 | 13 | 253 | 3.2 | 9.7 | 0.00 | 0.00 | 0.00 | 75 | 1010.4 |
| 20260505062035 | 13 | 286 | 4.8 | 9.7 | 0.00 | 0.00 | 0.00 | 75 | 1010.4 |
| 20260505061542 | 13 | 271 | 3.2 | 12.9 | 0.00 | 0.00 | 0.00 | 74 | 1010.4 |
| 20260505061032 | 13 | 282 | 3.2 | 12.9 | 0.00 | 0.00 | 0.00 | 74 | 1010.4 |
| 20260505060538 | 13 | 244 | 1.6 | 11.3 | 0.00 | 0.00 | 0.00 | 74 | 1010.3 |
| 20260505060032 | 13 | 83 | 3.2 | 11.3 | 0.00 | 0.00 | 0.00 | 74 | 1010.4 |
| 20260505055534 | 13 | 304 | 1.6 | 8.0 | 0.00 | 0.00 | 0.00 | 74 | 1010.4 |
| 20260505055033 | 13 | 304 | 1.6 | 8.0 | 0.00 | 0.00 | 0.00 | 74 | 1010.4 |
| 20260505054531 | 13 | 319 | 1.6 | 4.8 | 0.00 | 0.00 | 0.00 | 74 | 1010.4 |
| 20260505054034 | 13 | 323 | 1.6 | 4.8 | 0.00 | 0.00 | 0.00 | 74 | 1010.5 |
| 20260505053530 | 13 | 79 | 0.0 | 6.4 | 0.00 | 0.00 | 0.00 | 74 | 1010.4 |
| 20260505053030 | 13 | 95 | 1.6 | 6.4 | 0.00 | 0.00 | 0.00 | 73 | 1010.5 |
| 20260505052529 | 13 | 148 | 1.6 | 8.0 | 0.00 | 0.00 | 0.00 | 73 | 1010.4 |
| 20260505052030 | 13 | 208 | 1.6 | 6.4 | 0.00 | 0.00 | 0.00 | 73 | 1010.4 |
| 20260505051531 | 13 | 217 | 3.2 | 8.0 | 0.00 | 0.00 | 0.00 | 72 | 1010.5 |
| 20260505051030 | 13 | 176 | 1.6 | 8.0 | 0.00 | 0.00 | 0.00 | 72 | 1010.6 |
| 20260505050527 | 13 | 77 | 1.6 | 6.4 | 0.00 | 0.00 | 0.00 | 71 | 1010.5 |
| 20260505041519 | 15 | 141 | 1.6 | 12.9 | 0.00 | 0.00 | 0.00 | 67 | 1010.6 |
| 20260505041019 | 15 | 355 | 1.6 | 9.7 | 0.00 | 0.00 | 0.00 | 66 | 1010.7 |
| 20260505040518 | 15 | 89 | 1.6 | 9.7 | 0.00 | 0.00 | 0.00 | 66 | 1010.6 |
| 20260505040017 | 15 | 134 | 3.2 | 8.0 | 0.00 | 0.00 | 0.00 | 66 | 1010.7 |
| 20260505035516 | 15 | 107 | 1.6 | 12.9 | 0.00 | 0.00 | 0.00 | 66 | 1010.7 |
| 20260505035016 | 15 | 261 | 3.2 | 12.9 | 0.00 | 0.00 | 0.00 | 66 | 1010.6 |
| 20260505034519 | 15 | 92 | 3.2 | 11.3 | 0.00 | 0.00 | 0.00 | 66 | 1010.6 |
| 20260505034018 | 15 | 233 | 1.6 | 11.3 | 0.00 | 0.00 | 0.00 | 66 | 1010.6 |
| 20260505033520 | 15 | 355 | 3.2 | 11.3 | 0.00 | 0.00 | 0.00 | 66 | 1010.6 |
| 20260505033028 | 15 | 62 | 3.2 | 12.9 | 0.00 | 0.00 | 0.00 | 67 | 1010.7 |
| 20260505032516 | 15 | 82 | 3.2 | 12.9 | 0.00 | 0.00 | 0.00 | 67 | 1010.7 |
| 20260505032017 | 15 | 75 | 1.6 | 6.4 | 0.00 | 0.00 | 0.00 | 67 | 1010.8 |
| 20260505031516 | 15 | 75 | 3.2 | 6.4 | 0.00 | 0.00 | 0.00 | 66 | 1010.8 |
| 20260505031015 | 15 | 79 | 1.6 | 8.0 | 0.00 | 0.00 | 0.00 | 65 | 1010.8 |
| 20260505030515 | 15 | 80 | 1.6 | 8.0 | 0.00 | 0.00 | 0.00 | 65 | 1010.8 |
| 20260505030015 | 15 | 76 | 1.6 | 6.4 | 0.00 | 0.00 | 0.00 | 64 | 1010.9 |
| 20260505025519 | 15 | 76 | 1.6 | 8.0 | 0.00 | 0.00 | 0.00 | 64 | 1010.8 |
| 20260505025014 | 15 | 77 | 1.6 | 8.0 | 0.00 | 0.00 | 0.00 | 64 | 1010.9 |
| 20260505024533 | 15 | 74 | 1.6 | 8.0 | 0.00 | 0.00 | 0.00 | 63 | 1010.9 |
| 20260505024017 | 15 | 72 | 3.2 | 12.9 | 0.00 | 0.00 | 0.00 | 63 | 1010.9 |
| 20260505023516 | 15 | 71 | 3.2 | 12.9 | 0.00 | 0.00 | 0.00 | 63 | 1010.9 |
| 20260505023014 | 15 | 60 | 1.6 | 8.0 | 0.00 | 0.00 | 0.00 | 62 | 1010.9 |
| 20260505022514 | 15 | 54 | 3.2 | 9.7 | 0.00 | 0.00 | 0.00 | 63 | 1010.9 |
| 20260505022014 | 15 | 70 | 3.2 | 12.9 | 0.00 | 0.00 | 0.00 | 62 | 1011.0 |
| 20260505021528 | 15 | 122 | 1.6 | 6.4 | 0.00 | 0.00 | 0.00 | 62 | 1011.0 |
| 20260505021013 | 15 | 148 | 3.2 | 6.4 | 0.00 | 0.00 | 0.00 | 62 | 1011.0 |
| 20260505020513 | 15 | 97 | 1.6 | 6.4 | 0.00 | 0.00 | 0.00 | 62 | 1011.0 |
| 20260505020013 | 15 | 101 | 0.0 | 6.4 | 0.00 | 0.00 | 0.00 | 62 | 1010.9 |
| 20260505015517 | 16 | 101 | 1.6 | 6.4 | 0.00 | 0.00 | 0.00 | 61 | 1010.9 |
| 20260505015013 | 16 | 102 | 1.6 | 9.7 | 0.00 | 0.00 | 0.00 | 61 | 1011.0 |
| 20260505014513 | 16 | 99 | 1.6 | 9.7 | 0.00 | 0.00 | 0.00 | 61 | 1010.9 |
| 20260505014012 | 16 | 99 | 1.6 | 6.4 | 0.00 | 0.00 | 0.00 | 60 | 1010.8 |
| 20260505013511 | 16 | 97 | 3.2 | 6.4 | 0.00 | 0.00 | 0.00 | 60 | 1010.8 |
| 20260505013012 | 16 | 108 | 0.0 | 4.8 | 0.00 | 0.00 | 0.00 | 60 | 1010.8 |
| 20260505012514 | 16 | 107 | 1.6 | 6.4 | 0.00 | 0.00 | 0.00 | 61 | 1010.8 |
| 20260505012015 | 16 | 111 | 0.0 | 6.4 | 0.00 | 0.00 | 0.00 | 59 | 1010.8 |
| 20260505011512 | 16 | 130 | 0.0 | 8.0 | 0.00 | 0.00 | 0.00 | 59 | 1010.8 |
| 20260505011011 | 16 | 138 | 1.6 | 8.0 | 0.00 | 0.00 | 0.00 | 59 | 1010.7 |
| 20260505010511 | 16 | 168 | 0.0 | 4.8 | 0.00 | 0.00 | 0.00 | 59 | 1010.6 |
| 20260505010011 | 16 | 271 | 0.0 | 6.4 | 0.00 | 0.00 | 0.00 | 59 | 1010.5 |
| 20260505005511 | 16 | 270 | 1.6 | 8.0 | 0.00 | 0.00 | 0.00 | 59 | 1010.4 |
| 20260505005011 | 16 | 331 | 1.6 | 8.0 | 0.00 | 0.00 | 0.00 | 59 | 1010.4 |
| 20260505004521 | 16 | 149 | 1.6 | 6.4 | 0.00 | 0.00 | 0.00 | 59 | 1010.4 |
| 20260505004010 | 17 | 208 | 1.6 | 12.9 | 0.00 | 0.00 | 0.00 | 59 | 1010.5 |
| 20260505003510 | 17 | 213 | 3.2 | 12.9 | 0.00 | 0.00 | 0.00 | 59 | 1010.5 |
| 20260505003010 | 17 | 141 | 0.0 | 8.0 | 0.00 | 0.00 | 0.00 | 59 | 1010.4 |
| 20260505002510 | 17 | 202 | 1.6 | 8.0 | 0.00 | 0.00 | 0.00 | 58 | 1010.3 |
| 20260505002010 | 17 | 242 | 0.0 | 8.0 | 0.00 | 0.00 | 0.00 | 58 | 1010.2 |
| 20260505001510 | 17 | 236 | 3.2 | 6.4 | 0.00 | 0.00 | 0.00 | 58 | 1010.2 |
| 20260505001009 | 17 | 237 | 1.6 | 11.3 | 0.00 | 0.00 | 0.00 | 57 | 1010.2 |
| 20260505000511 | 17 | 225 | 4.8 | 11.3 | 0.00 | 0.00 | 0.00 | 57 | 1010.2 |
| 20260505000011 | 17 | 35 | 1.6 | 17.7 | 0.00 | 0.00 | 0.00 | 57 | 1010.1 |
| 20260504235508 | 17 | 206 | 3.2 | 17.7 | 0.00 | 0.00 | 0.00 | 57 | 1010.0 |
| 20260504235010 | 18 | 265 | 1.6 | 8.0 | 0.00 | 0.00 | 0.00 | 56 | 1010.0 |
| 20260504234507 | 18 | 294 | 0.0 | 6.4 | 0.00 | 0.00 | 0.00 | 57 | 1010.0 |
| 20260504234010 | 18 | 241 | 0.0 | 12.9 | 0.00 | 0.00 | 0.00 | 56 | 1009.9 |
| 20260504233507 | 18 | 242 | 3.2 | 14.5 | 0.00 | 0.00 | 0.00 | 56 | 1009.7 |
| 20260504233007 | 18 | 190 | 4.8 | 16.1 | 0.00 | 0.00 | 0.00 | 56 | 1009.7 |
| 20260504232507 | 18 | 321 | 1.6 | 12.9 | 0.00 | 0.00 | 0.00 | 55 | 1009.7 |
| 20260504232006 | 18 | 223 | 1.6 | 12.9 | 0.00 | 0.00 | 0.00 | 55 | 1009.6 |
| 20260504231506 | 18 | 187 | 3.2 | 12.9 | 0.00 | 0.00 | 0.00 | 55 | 1009.5 |
| 20260504231006 | 18 | 188 | 4.8 | 17.7 | 0.00 | 0.00 | 0.00 | 54 | 1009.4 |
| 20260504230506 | 19 | 236 | 4.8 | 17.7 | 0.00 | 0.00 | 0.00 | 54 | 1009.5 |
| 20260504230006 | 19 | 157 | 1.6 | 8.0 | 0.00 | 0.00 | 0.00 | 54 | 1009.5 |
| 20260504225508 | 19 | 132 | 3.2 | 12.9 | 0.00 | 0.00 | 0.00 | 53 | 1009.4 |
| 20260504225005 | 20 | 319 | 3.2 | 16.1 | 0.00 | 0.00 | 0.00 | 53 | 1009.5 |
| 20260504224508 | 20 | 150 | 3.2 | 16.1 | 0.00 | 0.00 | 0.00 | 52 | 1009.4 |
| 20260504224005 | 20 | 282 | 3.2 | 11.3 | 0.00 | 0.00 | 0.00 | 52 | 1009.4 |
| 20260504223504 | 20 | 267 | 1.6 | 16.1 | 0.00 | 0.00 | 0.00 | 52 | 1009.4 |
| 20260504223004 | 20 | 296 | 1.6 | 16.1 | 0.00 | 0.00 | 0.00 | 51 | 1009.4 |
| 20260504222504 | 20 | 288 | 3.2 | 14.5 | 0.00 | 0.00 | 0.00 | 51 | 1009.6 |
| 20260504222007 | 20 | 304 | 4.8 | 16.1 | 0.00 | 0.00 | 0.00 | 51 | 1009.6 |
| 20260504221503 | 20 | 253 | 4.8 | 16.1 | 0.00 | 0.00 | 0.00 | 50 | 1009.6 |
| 20260504221004 | 20 | 82 | 1.6 | 14.5 | 0.00 | 0.00 | 0.00 | 51 | 1009.6 |
| 20260504220505 | 21 | 110 | 4.8 | 12.9 | 0.00 | 0.00 | 0.00 | 50 | 1009.5 |
| 20260504220003 | 21 | 178 | 4.8 | 17.7 | 0.00 | 0.00 | 0.00 | 50 | 1009.6 |
| 20260504215503 | 21 | 300 | 6.4 | 17.7 | 0.00 | 0.00 | 0.00 | 50 | 1009.6 |
| 20260504215003 | 21 | 153 | 0.0 | 17.7 | 0.00 | 0.00 | 0.00 | 50 | 1009.6 |
| 20260504214502 | 21 | 162 | 6.4 | 19.3 | 0.00 | 0.00 | 0.00 | 49 | 1009.6 |
| 20260504214001 | 21 | 290 | 3.2 | 14.5 | 0.00 | 0.00 | 0.00 | 49 | 1009.8 |
| 20260504213601 | 21 | 177 | 4.8 | 14.5 | 0.00 | 0.00 | 0.00 | 49 | 1009.7 |
| 20260504213128 | 21 | 248 | 3.2 | 16.1 | 0.00 | 0.00 | 0.00 | 49 | 1009.8 |
| 20260504212602 | 21 | 261 | 4.8 | 16.1 | 0.00 | 0.00 | 0.00 | 49 | 1009.8 |
| 20260504212100 | 21 | 260 | 4.8 | 16.1 | 0.00 | 0.00 | 0.00 | 49 | 1009.8 |
| 20260504211559 | 20 | 236 | 4.8 | 16.1 | 0.00 | 0.00 | 0.00 | 51 | 1009.7 |